Date String (YYYY-MM-DD hh:mm:ss) UTC,Instrument flags,absolute air pressure of the measurement (hPa),sample flow rate (lpm),inlet stack bypass flow (lpm),air temperature of the measurement (°C),ambient temperature measured by the external sensor (°C),aerosol sample conditioner tube jacket temperature (°C),OPC LED temperature (°C),internal box temperature (°C),relative humidity of the measurement (%),span deviation,mass concentration of particles derived from Lorenz-Mie calculation of OPC scattering (μg/m³),mass concentration of particles derived from Lorenz-Mie calculation of OPC scattering (μg/m³),mass concentration of particles derived from Lorenz-Mie calculation of OPC scattering (μg/m³)
DateTimeUTC,F1_M11,P_M11,Q1_M11,Q2_M11,T1_M11,T2_M11,T3_M11,T4_M11,T5_M11,U1_M11,ZSPAN_M11,X0_M11,X2_M11,X1_M11
2024-05-13 10:00:00,SystemResetWarning,0827.3,5.00,000.00,026.0,025.3,000.0,034.3,027.7,019.6,0000.0,0005.61,0003.31,0002.50
2024-05-13 10:01:00,SystemResetWarning,0827.3,5.00,000.00,026.0,025.3,000.0,034.3,027.7,019.6,0000.0,0005.47,0003.29,0002.49
2024-05-13 10:02:00,SystemResetWarning,0827.3,5.00,000.00,026.0,025.3,000.0,034.3,027.7,019.6,0000.0,0005.25,0003.26,0002.49
2024-05-13 10:03:00,SystemResetWarning,0827.2,4.99,000.00,026.0,025.3,000.0,034.3,027.7,019.6,0000.0,0005.28,0003.23,0002.48
2024-05-13 10:04:00,SystemResetWarning,0827.2,4.99,000.00,026.0,025.3,000.0,034.3,027.7,019.6,0000.0,0005.48,0003.22,0002.47
2024-05-13 10:05:00,SystemResetWarning,0827.2,5.00,000.00,026.0,025.3,000.0,034.3,027.7,019.5,0000.0,0005.65,0003.21,0002.47
2024-05-13 10:06:00,SystemResetWarning,0827.2,5.01,000.00,026.0,025.3,000.0,034.3,027.7,019.5,0000.0,0006.76,0003.21,0002.47
2024-05-13 10:07:00,SystemResetWarning,0827.2,5.01,000.00,026.0,025.3,000.0,034.3,027.7,019.5,0000.0,0006.81,0003.18,0002.46
2024-05-13 10:08:00,SystemResetWarning,0827.2,4.99,000.00,026.0,025.3,000.0,034.3,027.7,019.4,0000.0,0006.85,0003.17,0002.45
2024-05-13 10:09:00,SystemResetWarning,0827.2,4.98,000.00,026.0,025.3,000.0,034.3,027.7,019.4,0000.0,0006.83,0003.17,0002.45
2024-05-13 10:10:00,SystemResetWarning,0827.2,5.00,000.00,026.0,025.3,000.0,034.3,027.7,019.4,0000.0,0006.83,0003.18,0002.44
2024-05-13 10:11:00,SystemResetWarning,0827.2,5.01,000.00,026.0,025.3,000.0,034.3,027.7,019.5,0000.0,0006.58,0003.13,0002.42
2024-05-13 10:12:00,SystemResetWarning,0827.2,5.01,000.00,026.0,025.3,000.0,034.2,027.7,019.4,0000.0,0006.56,0003.13,0002.44
2024-05-13 10:13:00,SystemResetWarning,0827.2,4.99,000.00,026.0,025.3,000.0,034.2,027.7,019.4,0000.0,0006.67,0003.13,0002.44
2024-05-13 10:14:00,SystemResetWarning,0827.2,4.99,000.00,026.0,025.3,000.0,034.2,027.7,019.5,0000.0,0006.78,0003.16,0002.45
2024-05-13 10:15:00,SystemResetWarning,0827.2,5.00,000.00,026.0,025.3,000.0,034.2,027.7,019.5,0000.0,0006.85,0003.19,0002.45
2024-05-13 10:16:00,SystemResetWarning,0827.2,5.00,000.00,026.0,025.3,000.0,034.2,027.7,019.5,0000.0,0006.96,0003.20,0002.45
2024-05-13 10:17:00,SystemResetWarning,0827.2,5.01,000.00,026.0,025.3,000.0,034.2,027.7,019.5,0000.0,0005.99,0003.17,0002.44
2024-05-13 10:18:00,SystemResetWarning,0827.3,5.00,000.00,026.0,025.3,000.0,034.2,027.6,019.5,0000.0,0006.63,0003.20,0002.45
2024-05-13 10:19:00,SystemResetWarning,0827.2,5.00,000.00,026.0,025.3,000.0,034.2,027.7,019.5,0000.0,0006.91,0003.21,0002.47
2024-05-13 10:20:00,SystemResetWarning,0827.2,5.01,000.00,026.0,025.3,000.0,034.2,027.7,019.6,0000.0,0006.88,0003.19,0002.47
2024-05-13 10:21:00,SystemResetWarning,0827.2,5.00,000.00,026.0,025.3,000.0,034.2,027.7,019.6,0000.0,0007.36,0003.19,0002.48
2024-05-13 10:22:00,SystemResetWarning,0827.2,5.00,000.00,026.0,025.2,000.0,034.2,027.6,019.5,0000.0,0007.91,0003.23,0002.51
2024-05-13 10:23:00,SystemResetWarning,0827.2,4.99,000.00,026.0,025.2,000.0,034.2,027.6,019.6,0000.0,0008.97,0003.25,0002.51
2024-05-13 10:24:00,SystemResetWarning,0827.2,4.99,000.00,026.0,025.2,000.0,034.2,027.6,019.7,0000.0,0008.97,0003.27,0002.51
2024-05-13 10:25:00,SystemResetWarning,0827.2,5.00,000.00,026.0,025.2,000.0,034.2,027.7,019.6,0000.0,0008.89,0003.27,0002.52
2024-05-13 10:26:00,SystemResetWarning,0827.2,5.00,000.00,026.0,025.2,000.0,034.2,027.7,019.6,0000.0,0008.80,0003.25,0002.52
2024-05-13 10:27:00,SystemResetWarning,0827.2,5.00,000.00,026.0,025.2,000.0,034.2,027.7,019.6,0000.0,0008.61,0003.25,0002.52
2024-05-13 10:28:00,SystemResetWarning,0827.3,5.00,000.00,026.0,025.2,000.0,034.2,027.7,019.7,0000.0,0008.65,0003.29,0002.55
2024-05-13 10:29:00,SystemResetWarning,0827.2,5.00,000.00,026.0,025.2,000.0,034.2,027.7,019.5,0000.0,0008.28,0003.28,0002.56
2024-05-13 10:30:00,SystemResetWarning,0827.2,5.00,000.00,026.0,025.2,000.0,034.2,027.7,019.5,0000.0,0007.93,0003.26,0002.55
2024-05-13 10:31:00,SystemResetWarning,0827.2,5.01,000.00,026.0,025.2,000.0,034.2,027.6,019.4,0000.0,0007.94,0003.26,0002.55
2024-05-13 10:32:00,SystemResetWarning,0827.2,5.01,000.00,026.0,025.2,000.0,034.2,027.6,019.4,0000.0,0007.71,0003.28,0002.56
2024-05-13 10:33:00,SystemResetWarning,0827.2,5.00,000.00,025.9,025.2,000.0,034.2,027.6,019.5,0000.0,0007.11,0003.24,0002.54
2024-05-13 10:34:00,SystemResetWarning,0827.2,4.99,000.00,025.9,025.2,000.0,034.2,027.6,019.6,0000.0,0005.34,0003.22,0002.52
2024-05-13 10:35:00,SystemResetWarning,0827.2,4.99,000.00,025.9,025.2,000.0,034.2,027.6,019.6,0000.0,0005.06,0003.23,0002.53
2024-05-13 10:36:00,SystemResetWarning,0827.2,4.99,000.00,025.9,025.2,000.0,034.2,027.6,019.6,0000.0,0005.21,0003.20,0002.53
2024-05-13 10:37:00,SystemResetWarning,0827.1,5.01,000.00,025.9,025.2,000.0,034.2,027.6,019.5,0000.0,0006.10,0003.18,0002.53
2024-05-13 10:38:00,SystemResetWarning,0827.1,5.01,000.00,025.9,025.2,000.0,034.2,027.6,019.5,0000.0,0006.56,0003.17,0002.53
2024-05-13 10:39:00,SystemResetWarning,0827.1,4.99,000.00,025.9,025.2,000.0,034.2,027.6,019.5,0000.0,0006.69,0003.16,0002.52
2024-05-13 10:40:00,SystemResetWarning,0827.1,4.99,000.00,025.9,025.2,000.0,034.2,027.6,019.5,0000.0,0006.65,0003.16,0002.52
2024-05-13 10:41:00,SystemResetWarning,0827.2,4.99,000.00,025.9,025.2,000.0,034.2,027.6,019.4,0000.0,0007.01,0003.21,0002.53
2024-05-13 10:42:00,SystemResetWarning,0827.2,5.00,000.00,025.9,025.2,000.0,034.2,027.6,019.4,0000.0,0007.15,0003.23,0002.54
2024-05-13 10:43:00,SystemResetWarning,0827.2,5.01,000.00,025.9,025.2,000.0,034.2,027.6,019.5,0000.0,0007.16,0003.22,0002.53
2024-05-13 10:44:00,SystemResetWarning,0827.1,5.01,000.00,025.9,025.2,000.0,034.2,027.6,019.4,0000.0,0007.13,0003.21,0002.54
2024-05-13 10:45:00,SystemResetWarning,0827.1,5.00,000.00,025.9,025.2,000.0,034.2,027.6,019.4,0000.0,0007.11,0003.21,0002.56
2024-05-13 10:46:00,SystemResetWarning,0827.2,4.99,000.00,025.9,025.2,000.0,034.2,027.6,019.5,0000.0,0007.15,0003.24,0002.58
2024-05-13 10:47:00,SystemResetWarning,0827.1,4.99,000.00,025.9,025.2,000.0,034.2,027.6,019.5,0000.0,0007.42,0003.24,0002.58
2024-05-13 10:48:00,SystemResetWarning,0827.2,5.00,000.00,025.9,025.2,000.0,034.2,027.6,019.5,0000.0,0007.01,0003.23,0002.56
2024-05-13 10:49:00,SystemResetWarning,0827.2,5.01,000.00,025.9,025.2,000.0,034.1,027.6,019.5,0000.0,0006.81,0003.23,0002.56
2024-05-13 10:50:00,SystemResetWarning,0827.2,5.01,000.00,025.9,025.2,000.0,034.1,027.6,019.5,0000.0,0006.43,0003.21,0002.57
2024-05-13 10:51:00,SystemResetWarning,0827.2,5.01,000.00,025.9,025.2,000.0,034.2,027.6,019.5,0000.0,0006.41,0003.20,0002.56
2024-05-13 10:52:00,SystemResetWarning,0827.2,5.00,000.00,025.9,025.2,000.0,034.2,027.6,019.5,0000.0,0006.17,0003.17,0002.56
2024-05-13 10:53:00,SystemResetWarning,0827.2,5.00,000.00,025.9,025.2,000.0,034.1,027.6,019.5,0000.0,0006.02,0003.15,0002.56
2024-05-13 10:54:00,SystemResetWarning,0827.2,5.00,000.00,025.9,025.2,000.0,034.2,027.6,019.5,0000.0,0005.98,0003.15,0002.55
2024-05-13 10:55:00,SystemResetWarning,0827.3,5.01,000.00,025.9,025.2,000.0,034.2,027.6,019.5,0000.0,0006.02,0003.14,0002.54
2024-05-13 10:56:00,SystemResetWarning,0827.2,4.99,000.00,025.9,025.2,000.0,034.1,027.6,019.5,0000.0,0006.10,0003.14,0002.53
2024-05-13 10:57:00,SystemResetWarning,0827.2,4.99,000.00,025.9,025.2,000.0,034.1,027.6,019.5,0000.0,0006.14,0003.14,0002.50
2024-05-13 10:58:00,SystemResetWarning,0827.3,5.01,000.00,025.9,025.2,000.0,034.1,027.6,019.5,0000.0,0005.57,0003.14,0002.50
2024-05-13 10:59:00,SystemResetWarning,0827.2,5.01,000.00,025.9,025.2,000.0,034.1,027.6,019.5,0000.0,0005.29,0003.17,0002.51
